AirNav   TITAN Aviation Fuels
 
 985 users online  

M16 Steam Boat Bay Seaplane Base
East Gull Lake, Minnesota, USA

GOING TO EAST GULL LAKE?


FAA INFORMATION EFFECTIVE 09 SEPTEMBER 2021

Location

FAA Identifier: M16
Lat/Long: 46-23-52.3000N 094-22-15.6000W
46-23.871667N 094-22.260000W
46.3978611,-94.3710000
(estimated)
Elevation: 1197 ft. / 365 m (estimated)
From city: 4 miles W of EAST GULL LAKE, MN
Time zone: UTC -5 (UTC -6 during Standard Time)
Zip code: 56425

Seaplane Base Operations

Seaplane Base use: Open to the public
Activation date: 12/2014
Control tower: no
ARTCC: MINNEAPOLIS CENTER
FSS: PRINCETON FLIGHT SERVICE STATION
NOTAMs facility: PNM (NOTAM-D service available)
Attendance: UNATNDD
Wind indicator: no
Segmented circle: no

Seaplane Base Communications

CTAF: 122.9
WX ASOS at BRD (10 nm E): 126.775 (218-828-3314)
WX AWOS-3 at SAZ (18 nm W): 118.325 (218-894-3666)
WX AWOS-3 at PWC (20 nm N): 118.525 (218-587-3420)

Nearby radio navigation aids

NDB name  Hdg/Dist  Freq  Var  ID
LAREW253/14.825103EBR -... .-.
RIPLEY354/19.240403EXCR -..- -.-. .-.

Seaplane Base Services

Parking: buoy
Airframe service: NONE
Powerplant service: NONE
Bottled oxygen: NONE
Bulk oxygen: NONE

Runway Information

Runway 18W/36W

Dimensions: 7657 x 725 ft. / 2334 x 221 m
Surface: water
RUNWAY 18W  RUNWAY 36W
Traffic pattern: leftleft

Seaplane Base Ownership and Management from official FAA records

Ownership: Privately-owned
Owner: CARL BENJAMIN THURINGER
11266 PINE BEACH PENINSULA
BRAINERD, MN 56401
Phone 218-855-5910
Manager: CARL BENJAMIN THURINGER
11266 PINE BEACH PENINSULA
BRAINERD, MN 56401
Phone 218-855-5910

Seaplane Base Operational Statistics

Aircraft based on the field: 1
Single engine airplanes: 1
    
Aircraft operations: avg 21/month *
60% local general aviation
40% transient general aviation
* for 12-month period ending 21 September 2018

Additional Remarks

FOR CD CTC MINNEAPOLIS ARTCC AT 651-463-5588.

Instrument Procedures

There are no published instrument procedures at M16.

Some nearby airports with instrument procedures:

KBRD - Brainerd Lakes Regional Airport (10 nm E)
KSAZ - Staples Municipal Airport (18 nm W)
KRYM - Ray S Miller Army Airfield (18 nm S)
KPWC - Pine River Regional Airport (20 nm N)
KLXL - Little Falls/Morrison County Airport-Lindbergh Field (27 nm S)
 
Loc | Ops | Rwys | IFR | FBO | Links
Com | Nav | Svcs | Stats | Notes
Aerial photo
No photo
 
Airport distance calculator
Flying to Steam Boat Bay Seaplane Base? Find the distance to fly.

From to M16

Sunrise and sunset
Times for 26-Sep-2021
 Local
(UTC-5)
 Zulu
(UTC)
Morning civil twilight06:4111:41
Sunrise07:1112:11
Sunset19:0700:07
Evening civil twilight19:3700:37

Current date and time
Zulu (UTC)  26-Sep-2021 17:12:39
Local (UTC-5)  26-Sep-2021 12:12:39
 
METAR
KBRD 
10nm E 
261653Z AUTO 18006KT 10SM CLR 21/11 A2971 RMK AO2 SLP060 T02110106 TSNO $
KSAZ 
18nm W 
261655Z AUTO 00000KT 10SM CLR 20/11 A2970 RMK AO2 P0006
KRYM 
18nm S 
261656Z AUTO 15003KT 10SM BKN140 19/11 A2969 RMK AO2 SLP058 T01860107 FZRANO $
KPWC 
19nm N 
261655Z AUTO 00000KT 10SM CLR 22/12 A2973 RMK AO2
TAF
KBRD 
10nm E 
261127Z 2612/2712 20004KT P6SM BKN250 FM261800 22006KT P6SM SCT200
NOTAMs
Click for the latest NOTAMs
NOTAMs are issued by the DoD/FAA and will open in a separate window not controlled by AirNav.

 

 
 

Would you like to see your business listed on this page?

 If your business provides an interesting product or service to pilots, flight crews, aircraft, or users of the Steam Boat Bay Seaplane Base, you should consider listing it here.  To start the listing process, click on the button below
 
Add a business
 

Other Pages about Steam Boat Bay Seaplane Base

Update a link
 
Copyright © AirNav, LLC. All rights reserved. Privacy Policy  Contact